Location: Rock Island IL
(41.5000°N, 90.5500°W)
Time: 19:52:24
(UTC-05:00)

OTV 5 (USA 277) - Visible Passes

Search period start: 22 June 2018 00:00
Search period end: 02 July 2018 00:00
Orbit: 313 x 320 km, 54.5° (Epoch: 21 June)

Date Brightness Start Highest point End Pass type
(mag) Time Alt. Az. Time Alt. Az. Time Alt. Az.
22 Jun ? 01:51:46 10° NNW 01:52:38 16° NNW 01:52:38 16° NNW visible
22 Jun ? 21:22:36 10° NNW 21:23:00 10° NNW 21:23:25 10° NNW visible
23 Jun ? 00:33:00 10° N 00:33:55 11° NNE 00:34:38 10° NE visible
24 Jun ? 00:46:34 10° NNW 00:47:41 16° N 00:47:41 16° N visible
25 Jun ? 01:00:36 10° NW 01:00:55 12° NW 01:00:55 12° NW visible
25 Jun ? 23:41:28 10° N 23:43:03 14° NNE 23:43:24 14° NE visible
26 Jun ? 23:55:19 10° NNW 23:56:47 21° N 23:56:47 21° N visible
27 Jun ? 22:36:36 10° N 22:37:26 11° NNE 22:38:16 10° NE visible
28 Jun ? 00:09:30 10° NW 00:10:14 17° NW 00:10:14 17° NW visible
28 Jun ? 22:50:07 10° NNW 22:52:09 19° NNE 22:52:54 17° NE visible
29 Jun ? 23:04:09 10° NW 23:06:27 38° NNE 23:06:27 38° NNE visible
30 Jun ? 21:45:01 10° N 21:46:34 14° NNE 21:48:06 10° ENE visible
30 Jun ? 23:18:29 10° NW 23:20:03 30° WNW 23:20:03 30° WNW visible
01 Jul ? 21:58:52 10° NNW 22:01:13 26° NNE 22:02:51 15° E visible
01 Jul ? 23:33:16 10° WNW 23:33:42 13° W 23:33:42 13° W visible
